Showing default

USA 270, 41744

Orbit data source: Space-Track

USA 270, 41744 is a payload satellite owned by USAF AFSPC (US) in GEO that was launched on Fri, 19 Aug 2016 UTC via a DELTA 4M+(4,2) launch vehicle from the Air Force Eastern Test Range (AFETR). Payloads include a variety of satellites, spacecraft, and rockets equipped with specific instruments for various scientific and technological missions. These include communications satellites like Starlink; space stations such as the ISS; scientific satellites like the Hubble; Earth observation satellites from companies like Planet Labs, Umbra, and HawkEye 360; GPS; miniature CubeSats for education and research; and military/defense satellites.

Not visible in the next 10 days
USA 270 details
Identifier
41744, 2016-052A
Orbit
GEO
Last TLE update1 week ago
Origin
Flag of USUSAF AFSPC (US)
ManufacturerOATK SSG
MissionOperational Defense Classified
Bus & MotorGEOSTAR-1, AOCS
Mass500 kg wet, 500 kg dry
Launch date (UTC)
2016-08-19 (8 years ago)
Launch vehicle
DELTA 4M+(4,2)
Launch site
Air Force Eastern Test Range (AFETR)
Object type
Payload
Rocket body
Debris
Shape & HBRBox + 2 Pan, 5 m
Radar Cross Section7.621 m²

Expand to show TLE details & history

TLE from 1 week ago
0 USA 270
1 41744U 16052A   24339.96700052 -.00000297  00000-0  00000+0 0  9992
2 41744   2.7585  84.3196 0001351 276.9704 160.7275  1.00380547 22522
Epoch: 2024-12-04T23:12Z
Definitive object data (Epoch: 2024-12-04T23:12:28.844Z)
Latitude2.69733°
Longitude99.61459°
Altitude35,760.665 km
Speed3.075 km/s
True Right ascension10h 47m 57s
True Declination2° 41' 41"
Sunlit
Object was in daylight at TLE epoch
Visualization TLE readout
Latitude2.67981°
Longitude96.62868°
Altitude35,761.418 km
Speed3.075 km/s
Apparent Right ascension10h 24m 53s
Apparent Declination-2° 35' 21"
Sunlit
Object is in daylight
Visualization observer readout
Local Sidereal Time20:46:17
Azimuth322.753° NNW
Elevation-46.5°
Doppler factor1
Orbital elements
Apogee altitude35,762.893 km
Perigee altitude35,751.508 km
Semi-major axis42,135.337 km
Eccentricity0.0001351
Inclination2.7585°
RAAN84.3196°
Arg. of periapsis276.9704°
True anomaly160.73261°
Mean anomaly160.7275°
Eccentric anomaly160.73005°
Mean motion0.25094 °/min
BSTARUnknown
Orbital period1434.59 mins
Loading historical data...
41744 neighbors
Authenticating...
Loading maneuver chart data...
Loading historical data...
Loading historical data...
Loading historical data...
Loading historical data...
Loading historical data...
Loading historical data...
Loading historical data...
Other satellites on launch #52 in the year 2016 (2016-08-19 UTC)

USA 270 Visibility forecast

Observer location: undefined°, undefined

USA 270 is not visible in the next 10 days
Span
Click to sort rows by Start time (UTC) header in descending order
Start Az.
Max El. time (UTC)
Max El. Az.
Max El.
End time (UTC)
End Az.
|